Regional Weather Roundup
Issued by NWS Wakefield, VA

Home | Current Version | Previous Version | Text Only | Print | Product List | Glossary On
Versions: 1 2 3 4 5 6 7 8 9 10 11 12 13 14 15 16 17 18 19 20 21 22 23 24 25 26 27 28 29 30 31 32 33 34 35 36 37 38 39 40 41 42 43 44 45 46 47 48 49 50
000
ASUS41 KAKQ 242015
RWRAKQ

REGIONAL WEATHER ROUNDUP
NATIONAL WEATHER SERVICE WAKEFIELD VA
400 PM EDT SAT SEP 24 2016

Note: "fair" indicates few or no clouds below 12,000 feet with no
significant weather and/or obstructions to visibility. * = Denotes
station may not report precipitation (e.g., rain,snow,etc.),
thunder or fog.

VAZ042-051-052>054-056-242100-
NORTHERN VIRGINIA

CITY           SKY/WX    TMP DP  RH WIND       PRES   REMARKS
WASH NATIONAL  PTSUNNY   73  63  70 NE9       30.08F
DULLES         PTSUNNY   74  61  63 NE5       30.08F
FORT BELVOIR   MOSUNNY   73  63  68 VRB3      30.07F
QUANTICO       PTSUNNY   75  65  70 NE14      30.07S
FREDERICKSBRG* MOSUNNY   78  68  70 NE8       30.04S
STAFFORD*      MOSUNNY   77  66  70 NE10G17   30.10S
WARRENTON      MOSUNNY   81  58  45 NE14G20   30.06S
CULPEPER*      MOSUNNY   81  66  60 NE7       30.06S
MANASSAS*      MOSUNNY   77  64  65 N9        30.07F
LEESBURG*      PTSUNNY   75  63  64 NE6       30.09F
WINCHESTER     CLOUDY    73  59  60 NE7       30.10S
FRONT ROYAL*   FAIR      77  63  61 NE12      30.08S
LURAY*         FAIR      79  64  61 N10       30.06S
$$

VAZ048-049-060>072-079>083-242100-
CENTRAL AND SOUTH CENTRAL VIRGINIA

CITY           SKY/WX    TMP DP  RH WIND       PRES   REMARKS
RICHMOND       MOSUNNY   82  69  64 NE12      30.02S
CHESTERFIELD*  FAIR      88  61  40 NE8       30.03S
PETERSBURG*    MOSUNNY   90  65  42 N5        30.01S
HANOVER        PTSUNNY   80  67  64 VRB7      30.05R
TAPPAHANNOCK*  MOSUNNY   77  64  63 N12       30.06S
QUINTON*       FAIR      82  70  67 NE8       30.02S
CHARLOTTSVILLE CLOUDY    84  66  54 E6        30.04S
GORDONSVILLE*  FAIR      84  70  61 SE7       30.03S
ORANGE*          N/A     82  66  57 CALM      30.06S
LOUISA*        MOSUNNY   84  73  70 NE5       30.03S
BUMPASS*       MOCLDY    80  70  72 E6        30.04S
FARMVILLE*     CLOUDY    85  69  58 CALM      30.00S
CREWE*         FAIR      85  70  60 CALM      30.00F
FORT PICKETT*  FAIR      90  61  38 NE6       30.01F
CHASE CITY*    FAIR      89  61  38 CALM      30.02S
CLARKSVILLE*   FAIR      88  63  42 CALM      30.01F
SOUTH HILL*    MOSUNNY   89  66  45 N3        30.07S
LAWRENCEVILLE* MOCLDY    87  68  51 CALM      30.01S
EMPORIA*       MOSUNNY   88  64  45 CALM      30.01F
$$

VAZ088>098-242100-
SOUTHEAST VIRGINIA

CITY           SKY/WX    TMP DP  RH WIND       PRES   REMARKS
NORFOLK        PTSUNNY   77  71  82 NE14      30.01F
VIRGINIA BEACH PTSUNNY   77  69  76 NE12      30.01S
NORFOLK NAVAL  NOT AVBL
WEST POINT*    MOSUNNY   80  65  61 NE9       30.05S
SALUDA*        MOCLDY    76  69  79 N8        30.04S
NEWPORT NEWS   SUNNY     80  70  71 NE12      30.02S
LANGLEY AFB    SUNNY     79  71  75 NE18      30.02S
FORT EUSTIS    SUNNY     86  71  62 NE12      30.00S
WILLIAMSBURG*  SUNNY     88  72  58 E3        30.03R
HR EXEC AP*    FAIR      82  70  65 NE7G16    30.03S
FRANKLIN*      MOSUNNY   88  68  52 N8        30.00S
US460-WAKEFLD  SUNNY     88  67  49 NE6       30.00F
$$

VAZ020-022-025-037-045-242100-
WEST CENTRAL AND SOUTHWEST VIRGINIA

CITY           SKY/WX    TMP DP  RH WIND       PRES   REMARKS
STAUNTON*      CLOUDY    83  63  50 NE8       30.08S
WAYNESBORO*    CLOUDY    80  65  61 E6        30.07S
HOT SPRINGS VA MOSUNNY   75  56  51 W7        30.20F
LYNCHBURG      PTSUNNY   88  61  40 SW5       30.04F
DANVILLE       SUNNY     90  62  39 N5        30.03F
SOUTH BOSTON*  FAIR      91  59  34 NW5       30.01F
MARTINSVILLE   PTSUNNY   93  59  32 NE5       30.06F
ROANOKE        PTSUNNY   89  58  34 NW8       30.07F
BLACKSBURG     CLOUDY    86  62  45 NW8       30.15S
DUBLIN*        MOSUNNY   86  59  39 NW5       30.14F
MARION*        SUNNY     83  57  41 NW7       30.18F
HILLSVILLE*    MOSUNNY   82  58  44 NW6       30.15F
RICHLANDS*     FAIR      82  63  52 NW7       30.18S
WISE*          SUNNY     82  50  32 CALM      30.19F
ABINGDON*      PTSUNNY   86  60  40 NW5       30.14F
$$

MDZ021>025-VAZ099-100-242100-
SOUTHERN MARYLAND AND THE DELMARVA PENINSULA

CITY           SKY/WX    TMP DP  RH WIND       PRES   REMARKS
PATUXENT RIVER CLOUDY    72  63  73 NE9       30.07S
BAY BRIDGE APT CLOUDY    68  61  77 MISG      30.09S
LEONARDTOWN    CLOUDY    70  63  78 NE6       30.09S
DOVER          CLOUDY    66  65  98 NE7       30.08S
GEORGETOWN     CLOUDY    66  61  84 NE10      30.09R
EASTON         CLOUDY    68  59  73 NE13      30.13R
CAMBRIDGE      CLOUDY    68  63  83 NE5       30.07S
SALISBURY      CLOUDY    67  64  90 NE8       30.07R
OCEAN CITY     LGT RAIN  68  63  84 NE15G21   30.06R
WALLOPS ISLAND CLOUDY    72  66  81 N13       30.05S
ACCOMACK*      CLOUDY    77  67  70 N7        30.03R
$$

NCZ012>017-030>032-242100-
NORTH CENTRAL AND EASTERN NORTH CAROLINA

CITY           SKY/WX    TMP DP  RH WIND       PRES   REMARKS
ROANOKE RAPIDS FAIR      88  66  48 W5        30.01S
RALEIGH        MOSUNNY   91  64  40 W3        30.02F
ELIZABETH CITY PTSUNNY   87  67  51 NE8       29.99F
AHOSKIE*       SUNNY     86  67  53 NE3       30.00F
EDENTON*       SUNNY     88  66  48 W5        30.01S
CURRITUCK*     SUNNY     83  71  65 NE12G17   30.01S
KILL DEVIL HLS NOT AVBL
MANTEO         SUNNY     82  68  61 NE3       30.01S
CAPE HATTERAS  SUNNY     85  63  47 VRB3      30.01S
TARBORO*       FAIR      89  68  50 CALM      30.01F
GOLDSBORO      SUNNY     89  68  50 VRB3      29.99F
WASHINGTON     SUNNY     86  68  56 CALM      30.01S
GREENVILLE     SUNNY     88  68  51 CALM      30.03S
NEW BERN       SUNNY     87  66  49 NE5       30.01F
WILMINGTON     SUNNY     87  66  49 N6        30.00S
$$

VAZ048-242100-
ELSEWHERE

CITY           SKY/WX    TMP DP  RH WIND       PRES   REMARKS
HARRISBURG PA  SUNNY     75  46  35 N10       30.08F
BALTIMORE      CLOUDY    70  59  68 VRB6      30.09F
ANNAPOLIS      CLOUDY    71  62  73 NE7       30.08F
ANDREWS AFB    CLOUDY    70  61  73 NE9       30.07F
PHILADELPHIA   PTSUNNY   69  54  58 VRB3      30.09F
HENDERSON NC   MOSUNNY   86  59  39 N3        30.02F
GREENSBORO     MOSUNNY   90  62  39 VRB3      30.04F
ROCKY MOUNT    SUNNY     89  66  46 SW3       30.01S
$$

VAZ100-242100-
MARINE

STATION/POSITION TIME  TEMP    WIND        PRES    WAVE   SWELL
                       AIR SEA DIR/SP/G            HT/PER HT/PER
                 (UTC) (F)     (DEG/KT/KT) (MB)    (FT/S) (FT/S)
BRANDYWINE LGT   1900   65      40/ 16/ 20   N/A
CAPE MAY NJ      1900   65 74   20/  5/  8 1018.2R
LEWES DE         1900   68 73   30/ 13/ 15 1018.3R
OCEAN-CITY-INLET 1900   69 74   50/  7/ 15 1018.1S
WACHAPREAGUE VA  1900   74 78   50/ 18/ 21 1016.7S
THOMAS POINT MD  2000   69 76   20/ 14/ 15 1019.9F
GOOSES REEF MD   1900   71 77   80/  8/ 12 1018.9F   1/ 3
COVE POINT MD    1900   69      60/ 10/ 12 1018.8F
SOLOMONS ISLAND  1900   71 77   30/ 10/ 13   N/A
BISHOPS HEAD MD  1900   70 76   30/ 10/ 13 1018.3F
PINEY POINT MD   1900           60/  7/  9   N/A
POTOMAC MD       1900   71 77   20/ 14/ 16 1017.0F   1
CAMBRIDGE MD     1900   69 76   30/  8/ 10 1017.6F
LEWISETTA VA     1900   73 77   20/  7/ 12 1017.4F
RAPPAHANNOCK LGT 1900          360/ 19/ 20 1017.3S
STINGRAY PT      1900   75 77  320/ 16/ 17 1017.5S   2/ 3
YORK RVR RNG VA  1900   77      40/ 13/ 15 1016.3S
YORKTOWN VA      1900   78 78   50/ 11/ 16 1016.3S
JAMESTOWN VA     1900   84 79   30/  4/  8   N/A     0
DOMINION TERM VA 1900   81      40/  8/ 12 1016.5F
KIPTOPEKE VA     1900      78  100/  8/ 14   N/A
CHES BAY BRIDGE  1900   75 77   30/ 12/ 14 1016.6R
CAPE HENRY VA    1900   75      30/ 15/ 17   N/A
WILLOUBY STN VA  1900   76      30/ 18/ 19   N/A
CAPE HENRY BUOY  1912      77                N/A     3/10   2/11
1ST LANDING BUOY 1900   76 77   70/ 14/ 16 1016.3R   2/ 4
OFFSHORE WE BUOY 1951      76                N/A     4/10   2/12
64NM E OF VA BCH 1950   75 76  360/ 14/ 16 1015.5F   4/11   3/11
DUCK PIER NC     1900   84 78   70/  4/  4 1015.5F
44056 DUCK FRF   1911      79                N/A     4/11   3/11
OREGON INLET NC  1900   81 80   10/  6/  9 1016.1F
HATTERAS NC      1900   81 82  360/  4/  4 1016.0S
DIAMOND SHLS NC  1950   79 81   20/ 10/ 10 1015.9F   5/11   5/11
CAPE LOOKOUT NC  2000   79      80/  6/  7 1015.6F
$$



USA.gov is the U.S. government's official web portal to all federal, state and local government web resources and services.